Cloud_Cover
0 0 0 0 0 0 0 0 0 0 0 0 0 0 0 0 0 0 0 0 0 0 0 0 0 0 0 0 0 0 0 0 0
5 5 0 0 0 0 2 4 0 0 0 0 0 0 0 0 0 0 0 0 0 0 0 0 0 0 0 0 0 0 0 0 0
3 5 0 0 1 4 5 4 4 0 0 0 0 0 0 0 0 0 0 0 0 0 0 0 0 0 0 0 0 0 0 0 0
5 5 3 8 5 5 5 86 69 3 0 0 0 0 0 0 0 0 0 0 0 0 0 0 0 0 0 0 0 0 0 0 0
100 45 5 5 5 5 5 2 1 0 4 0 2 5 5 4 0 0 0 0 0 0 0 0 0 0 0 0 0 0 0 0 0
5 5 3 0 3 5 5 5 0 0 3 39 4 43 6 0 0 0 0 0 0 0 0 0 0 0 0 0 0 0 0 0 0
0 0 5 5 5 5 5 56 5 3 4 5 5 0 1 2 0 0 0 0 0 0 0 0 0 0 0 0 0 0 0 0 0
0 0 0 2 5 4 0 3 4 68 5 2 5 0 0 0 0 0 0 0 0 0 0 0 0 0 0 0 0 0 0 0 0
0 0 0 0 0 0 5 5 2 0 0 0 3 0 1 10 0 0 0 0 0 0 0 0 0 0 0 0 0 0 0 0 0
0 0 0 0 0 0 0 0 3 5 1 2 23 20 5 47 100 81 13 0 0 0 0 0 0 0 0 0 0 0 0 0 0
0 0 0 0 0 0 0 0 0 0 0 0 3 93 30 33 100 94 8 24 28 2 0 0 0 0 0 0 0 0 0 0 0
0 0 0 0 0 0 0 0 0 0 0 0 0 1 1 18 70 59 67 47 48 5 5 32 51 4 0 0 5 0 0 0 0
0 0 0 0 0 0 0 0 0 0 0 0 0 0 0 0 6 6 5 67 66 97 49 100 100 37 27 6 9 16 78 94 80
0 0 3 5 2 2 0 0 0 0 0 0 0 0 0 0 0 3 12 84 90 100 93 96 66 100 52 24 87 44 99 38 67
0 0 0 1 5 2 5 5 3 0 0 0 0 0 0 0 0 0 5 26 25 100 97 97 47 29 28 64 95 73 83 91 97
0 0 0 2 0 0 0 5 5 5 1 0 0 0 0 0 0 0 0 5 79 87 100 55 40 59 99 9 85 100 100 100 88
0 96 2 0 5 5 5 2 5 5 5 2 0 0 0 0 5 5 5 7 43 100 100 100 90 32 25 85 100 100 100 100 100
3 0 0 0 3 5 0 2 4 4 7 5 0 0 0 5 22 15 5 5 50 100 99 33 27 100 88 100 100 100 100 100 100
4 5 0 0 3 5 0 0 0 0 0 0 0 0 0 1 2 6 0 6 67 96 90 98 100 100 100 100 100 100 100 100 100
100 32 16 76 100 100 99 25 24 4 0 0 0 0 91 98 25 0 59 100 100 100 96 100 100 100 100 100 100 100 100 100 100